Orbital Elements at Epoch 2459200.5 (2020-Dec-17.0) TDB
Reference: JPL 87 (heliocentric ecliptic J2000)
Element | Value | Uncertainty (1-sigma) | Units |
e | .7391388679951985 | 9.3011e-08 | |
a | .8782029602643048 | 3.2657e-09 | au |
q | .2290890183445143 | 8.2007e-08 | au |
i | 13.43402818051898 | 1.576e-05 | deg |
node | 280.0512550732068 | 1.8104e-05 | deg |
peri | 353.126126883275 | 2.0281e-05 | deg |
M | 20.65502099886784 | 3.5691e-05 | deg |
tp | 2459183.252986155230 (2020-Nov-29.75298615) | 2.9733e-05 | TDB |
period | 300.6012428870288 0.82 | 1.6767e-06 4.591e-09 | d yr |
n | 1.197599838718213 | 6.6802e-09 | deg/d |
Q | 1.527316902184095 | 5.6796e-09 | au |
|
| | Orbit Determination Parameters
Additional Information
|